Starlink 32729

operational
NORAD ID: 62497 Int'l Des: 2025-003 Owner: SPXS Country: US Constellation: starlink
LEOCIRCULAR

Über Starlink 32729

Beschreibung wird geladen...

Live-Position

3D-Globus wird geladen...

Nächste Überflüge

Höhenverlauf

Altitude vs Time

uPlot chart will show altitude changes over time

Zweizeiliger Elementsatz

1 62497U 25003L 26034.22771893 .00035420 00000-0 12895-2 0 9993
2 62497 42.9963 123.3660 0000244 156.5598 203.5264 15.27606051 61409
Epoch: 3. Feb. 2026 • Age: 8 hours

Aktueller Status

Höhe 493.1 km
Geschwindigkeit 7.62 km/s
Subsatellitenpunkt -35.20°S, 103.13°E
Startdatum 6. Jan. 2025
Alter 1 years
Typ internet

Technische Details

Klassifizierung Payload
Masse 730.00 kg
Trockenmasse 700.00 kg
Gesamtmasse 730.00 kg
Länge 0.30 m
Durchmesser 4.10 m
Spannweite 29.00 m
Form Box + pan
Hersteller SPXS
Bus-Typ Starlink V2M
Phasenstatus In Orbit
Besitzer/Staat SPXS/US

Große Konstellationen

Loading constellations...